This demonstration page uses our WeatherBlox Daily Observations layout. Learn more.

Left ArrowRight Arrow

39.12711, -84.51439

Hourly Observations for October 19, 2016

Temp ( °F °C ) Dew Point ( °F °C ) Humidity (%) Winds ( mph kmh ) Pressure ( in mb ) Visibility ( mi km ) Precip ( " mm )
12:53 am 00:53 Mostly Cloudy 74 23.3 65 18.3 74 74 SW 8 13 29.91 1013 10 16 0.00 0.00
1:53 am 01:53 Cloudy with Light Rain 72 22.2 67 19.4 84 84 SSW 7 11 29.92 1013 8 13 0.01 0.25
2:53 am 02:53 Mostly Cloudy 69 20.6 67 19.4 93 93 S 5 7 29.94 1014 10 16 0.00 0.03
3:53 am 03:53 Mostly Cloudy 70 21.1 68 20 93 93 S 5 7 29.95 1014 10 16 0.00 0.03
4:13 am 04:13 Cloudy 71 21.7 68 20 90 90 Calm 29.94 1014 10 16 0.00 0.00
4:53 am 04:53 Cloudy 71 21.7 68 20 90 90 Calm 29.96 1015 10 16 0.00 0.00
5:53 am 05:53 Cloudy 72 22.2 69 20.6 91 91 N 3 6 29.98 1015 10 16 0.00 0.00
6:53 am 06:53 Cloudy 71 21.7 68 20 90 90 N 8 13 30.01 1016 9 14 0.00 0.00
7:53 am 07:53 Cloudy 69 20.6 66 18.9 90 90 NNE 6 9 30.03 1017 9 14 0.00 0.00
8:41 am 08:41 Mostly Cloudy 68 20 66 18.9 93 93 NE 7 11 30.03 1017 7 11 0.00 0.00
8:53 am 08:53 Mostly Sunny 69 20.6 66 18.9 90 90 NE 6 9 30.05 1018 7 11 0.00 0.00
9:29 am 09:29 Cloudy 69 20.6 67 19.4 93 93 NNE 6 9 30.03 1017 7 11 0.00 0.00
9:53 am 09:53 Cloudy 70 21.1 67 19.4 90 90 NNE 5 7 30.06 1018 7 11 0.00 0.00
10:53 am 10:53 Cloudy 72 22.2 67 19.4 84 84 Calm 30.06 1018 7 11 0.00 0.00
11:25 am 11:25 Cloudy 71 21.7 68 20 90 90 SW 3 6 30.03 1017 7 11 0.00 0.00
11:42 am 11:42 Cloudy 72 22 70 21 94 94 Calm 30.03 1017 8 13 0.00 0.00
11:53 am 11:53 Cloudy 73 22.8 69 20.6 87 87 SSE 5 7 30.06 1018 7 11 0.00 0.00
12:16 pm 12:16 Cloudy with Mist and Fog 73 23 70 21 89 89 S 9 15 30.03 1017 6 10 0.00 0.00
12:23 pm 12:23 Cloudy with Mist and Fog 74 23.3 70 21.1 88 88 VRB 6 9 30.03 1017 6 10 0.00 0.00
12:53 pm 12:53 Cloudy 75 23.9 70 21.1 84 84 SW 3 6 30.05 1018 7 11 0.00 0.00
1:53 pm 13:53 Mostly Cloudy 78 25.6 70 21.1 76 76 ENE 6 9 30.03 1017 8 13 0.00 0.00
2:53 pm 14:53 Mostly Cloudy 78 25.6 70 21.1 76 76 VRB 3 6 30.01 1016 8 13 0.00 0.00
3:09 pm 15:09 Mostly Cloudy 77 25 69 20.6 77 77 Calm 30.00 1016 9 14 0.00 0.00
3:53 pm 15:53 Mostly Cloudy 78 25.6 70 21.1 76 76 NE 8 13 29.99 1016 8 13 0.00 0.00
4:53 pm 16:53 Partly Cloudy 78 25.6 70 21.1 76 76 NNE 7 11 29.98 1015 8 13 0.00 0.00
5:53 pm 17:53 Partly Cloudy 74 23.3 69 20.6 85 85 NE 7 11 29.98 1015 7 11 0.00 0.00
6:44 pm 18:44 Partly Cloudy with Thunderstorms 73 23 70 21 89 89 NNE 6 9 29.97 1015 8 13 0.00 0.00
6:53 pm 18:53 Partly Cloudy with Thunderstorms 72 22.2 69 20.6 91 91 E 6 9 29.99 1016 8 13 0.00 0.00
7:31 pm 19:31 Cloudy with Strong Thunderstorms 71 21.7 70 21.1 96 96 Calm 29.97 1015 3 4 0.11 2.79
7:53 pm 19:53 Cloudy with Strong Thunderstorms 70 21.1 70 21.1 100 100 SE 5 7 29.98 1015 3 5 0.34 8.64
8:21 pm 20:21 Mostly Cloudy with Thunderstorms 70 21.1 70 21.1 100 100 S 10 17 30.00 1016 5 8 0.00 0.03
8:53 pm 20:53 Cloudy with Thunderstorms 69 20.6 69 20.6 100 100 SSW 6 9 30.02 1017 6 10 0.01 0.25
9:53 pm 21:53 Cloudy with Thunderstorms 66 18.9 66 18.9 100 100 VRB 5 7 30.03 1017 7 11 0.03 0.76
10:33 pm 22:33 Mostly Cloudy with Light Rain 65 18.3 65 18.3 100 100 SSW 6 9 30.00 1016 10 16 0.02 0.51
10:53 pm 22:53 Mostly Cloudy with Light Rain 65 18.3 65 18.3 100 100 S 5 7 30.02 1017 10 16 0.03 0.76
11:53 pm 23:53 Mostly Clear 65 18.3 65 18.3 100 100 E 3 6 29.98 1015 10 16 0.00 0.03

Powered by AerisWeather